DLH110 EDDH-LEMD

Flight info

Callsign DLH110
Flight time N/A
Altitude 36000
Route WSN5G WSN N125 SILQI N872 PAM/N0441F350 N872 MEDIL DCT KOVIN DCT DUCRA UM728 RESMI UN857 DISAK DCT ARKIP DCT ARNAV DCT LMG DCT UVELI DCT OSMOB DCT ARVID T424 PPN N10 BANEV
Aircraft A320/M-SDE3FGHIRWY/LB1

Departure

Time 2026-04-21 08:24
Airport Hamburg Helmut Schmidt Airport (EDDH)

Arrival

Time N/A
Airport Adolfo Suárez Madrid–Barajas Airport (LEMD)
Time Latitude Longitude Altitude Speed Heading
2026-04-21 07:48 53.63112 10.00376 46 ft 0 kts 87°
2026-04-21 07:48 53.63112 10.00374 46 ft 0 kts 87°
2026-04-21 08:16 53.63111 10.00334 43 ft 3 kts 87°
2026-04-21 08:17 53.63110 10.00298 43 ft 4 kts 100°
2026-04-21 08:17 53.63120 10.00262 45 ft 4 kts 155°
2026-04-21 08:17 53.63129 10.00257 42 ft 0 kts 176°
2026-04-21 08:21 53.63119 10.00258 45 ft 4 kts 176°
2026-04-21 08:21 53.63076 10.00261 48 ft 6 kts 185°
2026-04-21 08:21 53.63034 10.00226 48 ft 9 kts 213°
2026-04-21 08:22 53.62971 10.00158 48 ft 11 kts 212°
2026-04-21 08:22 53.62910 10.00093 45 ft 10 kts 212°
2026-04-21 08:22 53.62865 10.00025 48 ft 8 kts 238°
2026-04-21 08:22 53.62841 9.99945 46 ft 8 kts 242°
2026-04-21 08:23 53.62815 9.99854 45 ft 12 kts 252°
2026-04-21 08:23 53.62854 9.99757 45 ft 2 kts 330°
2026-04-21 08:23 53.62872 9.99740 45 ft 10 kts 332°
2026-04-21 08:23 53.63171 9.99484 46 ft 83 kts 332°
2026-04-21 08:24 53.63859 9.98888 49 ft 137 kts 333°
2026-04-21 08:24 53.64808 9.98071 319 ft 158 kts 336°
2026-04-21 08:24 53.65776 9.97145 918 ft 164 kts 334°
2026-04-21 08:24 53.66738 9.96110 1545 ft 167 kts 330°
2026-04-21 08:25 53.67706 9.94958 2088 ft 172 kts 330°
2026-04-21 08:25 53.68705 9.93800 2657 ft 177 kts 333°
2026-04-21 08:25 53.69762 9.92659 3147 ft 184 kts 339°
2026-04-21 08:25 53.70932 9.91503 3398 ft 212 kts 320°
2026-04-21 08:26 53.71605 9.89137 3651 ft 244 kts 276°
2026-04-21 08:26 53.71396 9.86158 3977 ft 269 kts 254°
2026-04-21 08:26 53.70760 9.83122 4622 ft 279 kts 248°
2026-04-21 08:26 53.70002 9.80087 5459 ft 283 kts 247°
2026-04-21 08:27 53.69236 9.77010 6291 ft 286 kts 248°
2026-04-21 08:27 53.68501 9.73868 7131 ft 289 kts 249°
2026-04-21 08:27 53.67800 9.70659 7883 ft 294 kts 250°
2026-04-21 08:27 53.67122 9.67391 8641 ft 298 kts 251°
2026-04-21 08:28 53.66451 9.64051 9399 ft 302 kts 251°
2026-04-21 08:28 53.65780 9.60666 10129 ft 307 kts 251°
2026-04-21 08:28 53.64938 9.57338 10802 ft 312 kts 239°
2026-04-21 08:28 53.63696 9.54199 11029 ft 333 kts 233°
2026-04-21 08:29 53.62297 9.50936 11262 ft 353 kts 232°
2026-04-21 08:29 53.60833 9.47561 11842 ft 360 kts 232°
2026-04-21 08:29 53.59366 9.44184 12498 ft 364 kts 232°
2026-04-21 08:29 53.57868 9.40727 13148 ft 368 kts 232°
2026-04-21 08:30 53.56352 9.37218 13786 ft 372 kts 232°
2026-04-21 08:30 53.54825 9.33674 14374 ft 376 kts 232°
2026-04-21 08:30 53.53280 9.30097 14950 ft 380 kts 232°
2026-04-21 08:30 53.51723 9.26498 15521 ft 383 kts 232°
2026-04-21 08:31 53.50145 9.22851 16097 ft 386 kts 232°
2026-04-21 08:31 53.48562 9.19191 16663 ft 390 kts 232°
2026-04-21 08:31 53.46960 9.15495 17228 ft 393 kts 232°
2026-04-21 08:31 53.45345 9.11776 17784 ft 396 kts 232°
2026-04-21 08:32 53.43711 9.08025 18340 ft 399 kts 232°
2026-04-21 08:32 53.42064 9.04252 18851 ft 403 kts 232°
2026-04-21 08:32 53.40404 9.00456 19318 ft 406 kts 232°
2026-04-21 08:32 53.38728 8.96629 19794 ft 409 kts 232°
2026-04-21 08:33 53.37040 8.92774 20269 ft 412 kts 232°
2026-04-21 08:33 53.35386 8.88827 20717 ft 416 kts 237°
2026-04-21 08:33 53.34070 8.84497 21143 ft 420 kts 248°
2026-04-21 08:33 53.33056 8.79908 21590 ft 423 kts 250°
2026-04-21 08:34 53.32043 8.75273 22043 ft 425 kts 249°
2026-04-21 08:34 53.31014 8.70623 22503 ft 427 kts 249°
2026-04-21 08:34 53.30325 8.67530 22798 ft 429 kts 249°
2026-04-21 08:34 53.29280 8.62850 23228 ft 432 kts 249°
2026-04-21 08:35 53.28236 8.58135 23653 ft 434 kts 249°
2026-04-21 08:35 53.27192 8.53383 24043 ft 437 kts 250°
2026-04-21 08:35 53.26153 8.48599 24388 ft 439 kts 250°
2026-04-21 08:35 53.25174 8.43747 24732 ft 441 kts 252°
2026-04-21 08:36 53.24250 8.38843 25078 ft 444 kts 253°
2026-04-21 08:36 53.23354 8.33907 25409 ft 446 kts 253°
2026-04-21 08:36 53.22457 8.28940 25739 ft 448 kts 253°
2026-04-21 08:36 53.21541 8.23939 26066 ft 450 kts 253°
2026-04-21 08:37 53.20606 8.18941 26382 ft 452 kts 252°
2026-04-21 08:37 53.19665 8.13994 26716 ft 454 kts 252°
2026-04-21 08:37 53.18700 8.08972 27033 ft 456 kts 252°
2026-04-21 08:37 53.17738 8.03927 27349 ft 458 kts 252°
2026-04-21 08:38 53.16776 7.98856 27658 ft 460 kts 252°
2026-04-21 08:38 53.15814 7.93762 27968 ft 462 kts 253°
2026-04-21 08:38 53.14848 7.88644 28274 ft 464 kts 252°
2026-04-21 08:38 53.13874 7.83512 28576 ft 466 kts 252°
2026-04-21 08:39 53.12893 7.78366 28878 ft 468 kts 252°
2026-04-21 08:39 53.11903 7.73187 29161 ft 470 kts 252°
2026-04-21 08:39 53.10906 7.67987 29449 ft 472 kts 252°
2026-04-21 08:39 53.09905 7.62781 29714 ft 474 kts 252°
2026-04-21 08:40 53.08895 7.57553 30002 ft 475 kts 252°
2026-04-21 08:40 53.07877 7.52310 30273 ft 477 kts 252°
2026-04-21 08:40 53.06852 7.47047 30498 ft 479 kts 252°
2026-04-21 08:40 53.05824 7.41767 30722 ft 480 kts 252°
2026-04-21 08:41 53.04790 7.36475 30953 ft 481 kts 252°
2026-04-21 08:41 53.03757 7.31206 31285 ft 480 kts 252°
2026-04-21 08:41 53.02722 7.25949 31646 ft 478 kts 252°
2026-04-21 08:41 53.01699 7.20775 32060 ft 474 kts 252°
2026-04-21 08:42 53.00669 7.15608 32457 ft 471 kts 252°
2026-04-21 08:42 52.99629 7.10463 32820 ft 469 kts 251°
2026-04-21 08:42 52.98586 7.05351 33207 ft 466 kts 251°
2026-04-21 08:42 52.97545 7.00275 33560 ft 464 kts 251°
2026-04-21 08:43 52.96502 6.95216 33880 ft 463 kts 251°
2026-04-21 08:43 52.95462 6.90181 34199 ft 461 kts 251°
2026-04-21 08:43 52.94424 6.85144 34492 ft 460 kts 251°
2026-04-21 08:43 52.93395 6.80125 34702 ft 461 kts 252°
2026-04-21 08:44 52.92361 6.75106 34937 ft 460 kts 252°
2026-04-21 08:44 52.91335 6.70154 35157 ft 459 kts 251°
2026-04-21 08:44 52.90282 6.65082 35337 ft 460 kts 252°
2026-04-21 08:44 52.89255 6.60142 35545 ft 459 kts 252°
2026-04-21 08:45 52.88216 6.55151 35766 ft 458 kts 252°
2026-04-21 08:45 52.87175 6.50183 35954 ft 458 kts 252°
2026-04-21 08:45 52.86128 6.45204 36133 ft 458 kts 252°
2026-04-21 08:45 52.85077 6.40231 36317 ft 457 kts 252°
2026-04-21 08:46 52.84031 6.35281 36365 ft 457 kts 252°
2026-04-21 08:46 52.81942 6.25405 36369 ft 453 kts 253°
2026-04-21 08:47 52.79863 6.15589 36373 ft 452 kts 253°
2026-04-21 08:47 52.77775 6.05794 36371 ft 452 kts 252°
2026-04-21 08:48 52.75669 5.95996 36371 ft 452 kts 252°
2026-04-21 08:48 52.73516 5.86253 36367 ft 453 kts 246°
2026-04-21 08:49 52.70142 5.77561 36362 ft 456 kts 230°
2026-04-21 08:49 52.65959 5.69687 36360 ft 457 kts 230°
2026-04-21 08:50 52.61769 5.61801 36351 ft 457 kts 230°
2026-04-21 08:50 52.57578 5.53947 36367 ft 457 kts 230°
2026-04-21 08:51 52.53383 5.46109 36358 ft 456 kts 230°
2026-04-21 08:51 52.49185 5.38280 36358 ft 456 kts 229°
2026-04-21 08:52 52.44980 5.30469 36357 ft 456 kts 230°
2026-04-21 08:52 52.40801 5.22733 36361 ft 456 kts 230°
2026-04-21 08:53 52.36587 5.14967 36370 ft 455 kts 230°
2026-04-21 08:53 52.31853 5.08124 36369 ft 457 kts 213°
2026-04-21 08:54 52.26180 5.03401 36363 ft 458 kts 207°
2026-04-21 08:54 52.20451 4.98861 36362 ft 458 kts 207°
2026-04-21 08:55 52.14728 4.94318 36365 ft 457 kts 207°
2026-04-21 08:55 52.09015 4.89787 36359 ft 456 kts 207°
2026-04-21 08:56 52.03307 4.85287 36349 ft 456 kts 207°
2026-04-21 08:56 51.97602 4.80819 36341 ft 455 kts 207°
2026-04-21 08:57 51.91908 4.76355 36340 ft 455 kts 208°
2026-04-21 08:57 51.86208 4.71891 36329 ft 455 kts 208°
2026-04-21 08:58 51.80508 4.67436 36327 ft 455 kts 208°